EW9765 Weather Reports


time (UTC)temp
F
wind
direction
speed
knots
gust
knots
rain 1hr
in
rain 24hr
in
rain mn
in
humidity
%
barometer
mb
20260507114530 40 263 0.0 0.0 0.00 0.09 0.00 100 1012.4
20260507113034 40 263 0.0 1.7 0.00 0.09 0.00 100 1012.5
20260507111526 39 263 0.0 1.7 0.00 0.09 0.00 100 1012.3
20260507110028 38 263 0.0 0.0 0.00 0.14 0.00 100 1012.3
20260507104524 38 263 0.0 0.0 0.00 0.14 0.00 100 1012.2
20260507103024 37 263 0.0 0.0 0.00 0.14 0.00 100 1012.1
20260507101533 37 263 0.0 2.6 0.00 0.14 0.00 100 1012.1
20260507100031 37 263 0.0 0.0 0.00 0.23 0.00 100 1011.7
20260507094522 37 263 0.0 0.0 0.00 0.23 0.00 100 1011.9
20260507093035 37 263 0.0 0.0 0.00 0.23 0.00 100 1011.9
20260507091520 37 263 0.0 0.0 0.00 0.23 0.00 100 1012.0
20260507090029 37 263 0.0 0.0 0.00 0.28 0.00 100 1012.0
20260507084518 37 263 0.0 0.0 0.00 0.28 0.00 100 1011.9
20260507083032 37 263 0.0 0.0 0.00 0.28 0.00 100 1011.8
20260507081515 37 264 0.0 0.0 0.00 0.28 0.00 100 1011.9
20260507080014 38 264 0.0 0.0 0.00 0.37 0.00 100 1011.9
20260507074525 38 263 0.0 0.0 0.00 0.37 0.00 100 1011.8
20260507073010 39 264 0.0 0.0 0.00 0.37 0.00 100 1011.9
20260507071508 40 263 0.0 0.0 0.00 0.37 0.00 100 1012.0
20260507070005 41 264 0.0 0.0 0.00 0.50 0.00 100 1012.1
20260507064602 41 263 0.0 0.0 0.00 0.50 0.00 100 1012.1
20260507063101 42 263 0.0 0.0 0.00 0.50 0.00 100 1012.1
20260507061558 42 263 0.0 0.0 0.00 0.50 0.00 100 1012.1
20260507060104 42 263 0.0 0.0 0.00 0.65 0.00 100 1012.1
20260507054604 42 263 0.0 0.0 0.00 0.65 0.00 100 1012.3
20260507053056 43 263 0.0 0.9 0.00 0.65 0.00 100 1012.7
20260507051552 43 263 0.0 0.0 0.00 0.65 0.00 100 1012.8
20260507050051 43 263 0.0 0.0 0.00 0.76 0.00 100 1012.8
20260507044550 43 263 0.0 0.9 0.00 0.76 0.00 100 1012.8
20260507043049 43 263 0.0 0.0 0.00 0.76 0.00 100 1012.7
20260507041551 43 263 0.0 2.6 0.00 0.76 0.00 100 1012.6
20260507040057 43 264 0.0 3.5 0.00 0.82 0.76 100 1012.6
20260507034554 43 266 0.0 0.9 0.00 0.82 0.76 100 1012.5
20260507033045 43 266 0.0 2.6 0.00 0.82 0.76 100 1012.5
20260507031544 43 266 0.9 5.2 0.00 0.82 0.76 100 1012.5
20260507030043 43 263 1.7 3.5 0.00 0.84 0.76 100 1012.3
20260507024542 43 263 0.0 3.5 0.00 0.84 0.76 100 1012.2
20260507023041 43 263 0.0 5.2 0.00 0.84 0.76 100 1012.3
20260507021642 43 263 0.9 5.2 0.00 0.84 0.76 100 1012.3
20260507020039 43 263 2.6 5.2 0.00 0.89 0.76 100 1012.4
20260507014536 43 223 0.9 3.5 0.00 0.89 0.76 100 1012.5
20260507013038 43 283 1.7 4.3 0.00 0.89 0.76 100 1012.2
20260507011539 43 283 0.0 1.7 0.00 0.89 0.76 100 1012.0
20260507010032 43 283 0.9 7.0 0.00 0.91 0.76 100 1012.2
20260507004529 44 279 3.5 9.6 0.00 0.91 0.76 100 1012.0
20260507003026 44 302 1.7 4.3 0.00 0.91 0.76 100 1011.8
20260507001526 44 284 1.7 5.2 0.00 0.91 0.76 100 1011.2
20260507000023 44 347 0.9 5.2 0.00 0.94 0.76 100 1011.2
20260506234530 44 323 1.7 4.3 0.00 0.94 0.76 100 1011.3
20260506233021 45 313 0.9 4.3 0.00 0.94 0.76 100 1011.1
20260506231521 45 323 2.6 7.0 0.00 0.94 0.76 100 1011.0
20260506230017 46 334 2.6 7.8 0.00 1.02 0.76 100 1010.7
20260506224524 48 289 7.0 15.6 0.00 1.02 0.76 100 1010.3
20260506223012 49 260 7.0 15.6 0.00 1.02 0.76 99 1010.0
20260506221511 51 267 2.6 7.8 0.00 1.02 0.76 97 1009.4
20260506220010 51 238 0.9 3.5 0.00 1.08 0.76 97 1009.3
20260506214509 50 166 0.9 4.3 0.00 1.08 0.76 98 1009.1
20260506213018 50 138 0.9 2.6 0.00 1.08 0.76 98 1009.1
20260506211511 50 166 0.9 2.6 0.00 1.08 0.76 98 1009.1
20260506210007 51 169 1.7 3.5 0.00 1.08 0.76 98 1009.1
20260506204506 50 190 0.9 2.6 0.00 1.08 0.76 98 1009.1
20260506203004 50 190 0.9 3.5 0.00 1.08 0.76 98 1009.2
20260506201503 50 226 1.7 5.2 0.00 1.08 0.76 99 1009.3
20260506200000 50 9 0.9 2.6 0.00 1.08 0.76 100 1009.3
20260506194557 48 9 0.0 2.6 0.00 1.08 0.76 100 1009.3
20260506193057 48 9 0.9 2.6 0.00 1.08 0.76 100 1009.3
20260506191604 48 9 0.0 2.6 0.00 1.08 0.76 100 1009.3
20260506190057 47 76 0.0 1.7 0.00 1.08 0.76 100 1009.2
20260506184600 47 76 0.9 3.5 0.00 1.08 0.76 100 1009.3
20260506183058 47 46 0.0 1.7 0.00 1.08 0.76 100 1009.5
20260506181556 47 46 0.0 1.7 0.00 1.08 0.76 100 1009.4
20260506180054 47 46 0.0 1.7 0.00 1.08 0.76 100 1009.3
20260506174605 46 46 0.0 1.7 0.00 1.08 0.76 100 1009.4
20260506173054 46 46 0.0 0.9 0.00 1.08 0.76 100 1009.4
20260506171546 46 46 0.0 1.7 0.00 1.08 0.76 100 1009.0
20260506170046 46 46 0.0 1.7 0.00 1.08 0.76 100 1008.9
20260506164549 46 45 0.0 2.6 0.00 1.08 0.76 100 1008.7
20260506163057 45 71 0.0 2.6 0.00 1.08 0.76 100 1008.8
20260506161543 45 74 0.0 2.6 0.00 1.08 0.76 100 1008.8
20260506160042 45 81 0.9 3.5 0.00 1.08 0.76 100 1008.6
20260506154547 45 86 0.0 2.6 0.00 1.08 0.76 100 1008.6
20260506153040 46 89 0.9 2.6 0.00 1.08 0.76 100 1008.7
20260506151542 45 70 0.0 0.0 0.01 1.08 0.76 100 1008.4
20260506150038 45 70 0.0 2.6 0.01 1.08 0.76 100 1008.4
20260506144537 44 70 0.9 2.6 0.01 1.08 0.76 100 1008.3
20260506143038 44 71 0.0 2.6 0.01 1.08 0.76 100 1008.2
20260506141535 44 71 0.0 3.5 0.01 1.07 0.75 100 1008.0
20260506140036 44 71 0.9 3.5 0.01 1.07 0.75 100 1007.9
20260506134534 44 30 0.9 2.6 0.02 1.07 0.75 100 1007.9
20260506133034 44 30 0.9 3.5 0.03 1.07 0.75 100 1007.9
20260506131537 43 76 0.9 2.6 0.02 1.06 0.74 100 1007.9
20260506130038 43 78 1.7 3.5 0.03 1.06 0.74 100 1007.7
20260506124531 43 75 0.9 7.8 0.03 1.05 0.73 100 1007.7
20260506123031 43 53 0.9 3.5 0.04 1.04 0.72 100 1007.5
20260506121530 43 71 1.7 5.2 0.05 1.04 0.72 100 1007.4
20260506120029 43 75 0.9 3.5 0.05 1.03 0.71 100 1007.6